Location: Guadanolo
(41.9167°N, 12.9333°E)
Time: 02:51:40
(UTC+00:00)

NOSS 3-3 (C) - Pass Details

Date: 16 September 2019
Orbit: 849 x 1364 km, 63.4° (Epoch: 08 October)

Event Time Altitude Azimuth Distance (km) Brightness Sun altitude
Rises 17:47:37 0° 208° (SSW) 3,428 7.1 -6.5°
Reaches altitude 10° 17:50:00 10° 207° (SSW) 2,524 6.4 -7.0°
Maximum altitude 17:55:48 78° 122° (ESE) 958 3.9 -8.0°
Drops below altitude 10° 18:02:19 10° 38° (NE) 2,810 6.2 -9.2°
Sets 18:05:05 0° 37° (NE) 3,844 6.9 -9.7°
